Location: Ottawa
(45.4170°N, 75.7000°W)
Time: 06:24:39
(UTC-05:00)

ISS - Pass Details

Date: 17 February 2026
Orbit: 416 x 427 km, 51.6° (Epoch: 5 March)

Event Time Altitude Azimuth Distance (km) Brightness Sun altitude
Exits shadow 04:18:20 17° 89° (E) 1,146 -0.8 -29.1°
Drops below altitude 10° 04:19:21 10° 78° (ENE) 1,494 0.0 -28.9°
Sets 04:21:36 0° 67° (ENE) 2,359 1.2 -28.6°
